Flag for Norway Weather past 2 weeks in Sarpsborg, Norway

Now
63 °F

Passing clouds.


Feels Like: 63 °F
Forecast: 50 / 55 °F
Wind: 9 mph from South

Location: Rygge

Current Time: Sep 4, 2015 at 5:13:54 PM

Latest Report: Sep 4, 2015 at 4:20 PM


Visibility: N/A

Pressure: 29.77 "Hg

Humidity: 68%

Dew point: 52 °F

Location of SarpsborgLocation

Historic Weather in Sarpsborg — Graph

°F

Sarpsborg temperature yesterday

Maximum temperature yesterday: 64 °F (at 2:20 PM)
Minimum temperature yesterday: 50 °F (at 11:20 PM)
Average temperature yesterday: 57 °F

Past Weeks' High & Low Weather Summary

 TemperatureHumidityPressure
High77 °F (Aug 23, 2:50 PM)100% (Aug 21, 5:20 AM)30.39 "Hg (Aug 21, 5:20 AM)
Low45 °F (Aug 22, 5:20 AM)32% (Aug 23, 3:20 PM)29.53 "Hg (Aug 27, 2:20 PM)
Average60 °F80%29.93 "Hg
* Reported Aug 20 3:20 PM — Sep 4 3:50 PM, Sarpsborg, Weather by CustomWeather, © 2015

Note: Actual official high and low records may vary slightly from our data, if they occured in-between our weather recording intervals... More about our weather records

Advertising

Sarpsborg weather history for previous 24 hours

 ConditionsComfort  
Time TempWeatherWind HumidityBarometerVisibility
3:50 PM
Fri, Sep 4
61 °FSunny.10 mph63%29.80 "Hg10 mi
3:20 PM63 °FPassing clouds.8 mph68%29.80 "HgN/A
2:50 PM63 °FPassing clouds.8 mph64%29.80 "HgN/A
2:20 PM61 °FPassing clouds.8 mph68%29.83 "HgN/A
1:50 PM61 °FPassing clouds.9 mph72%29.83 "HgN/A
1:20 PM63 °FPassing clouds.7 mph68%29.83 "HgN/A
12:50 PM59 °FScattered clouds.6 mph77%29.83 "HgN/A
12:20 PM59 °FScattered clouds.6 mph77%29.83 "HgN/A
11:50 AM59 °FScattered clouds.3 mph77%29.86 "HgN/A
11:20 AM57 °FPassing clouds.3 mph77%29.86 "HgN/A
10:50 AM57 °FSunny.1 mph77%29.86 "Hg10 mi
10:20 AM54 °FScattered clouds.2 mph88%29.86 "HgN/A
9:50 AM52 °FLight rain. Scattered clouds.3 mph94%29.86 "HgN/A
9:20 AM50 °FLight rain. Broken clouds.3 mph94%29.86 "HgN/A
8:50 AM50 °FBroken clouds.2 mph94%29.86 "HgN/A
8:20 AM48 °FScattered clouds.3 mph100%29.86 "HgN/A
7:50 AM48 °FScattered clouds.2 mph94%29.86 "HgN/A
7:20 AM46 °FPassing clouds.5 mph100%29.86 "HgN/A
6:50 AM46 °FPassing clouds.3 mph93%29.86 "HgN/A
6:20 AM46 °FPassing clouds.2 mph100%29.89 "HgN/A
5:50 AM46 °FPassing clouds.2 mph100%29.89 "HgN/A
5:20 AM46 °FPassing clouds.2 mph100%29.89 "HgN/A
4:50 AM46 °FPassing clouds.3 mph100%29.89 "Hg2 mi
4:20 AM48 °FPartly cloudy.2 mph94%29.89 "HgN/A
3:50 AM48 °FPassing clouds.2 mph100%29.89 "HgN/A
3:20 AM48 °FPassing clouds.2 mph100%29.89 "HgN/A
2:50 AM46 °FFog.2 mph100%29.89 "Hg0 mi
2:20 AM48 °FFog.2 mph100%29.89 "Hg1 mi
1:50 AM48 °FPassing clouds.3 mph100%29.89 "Hg1 mi
1:20 AM48 °FPassing clouds.2 mph100%29.89 "Hg0 mi
12:50 AM50 °FFog.2 mph100%29.92 "HgN/A
12:20 AM50 °FThunderstorms. Fog.3 mph94%29.89 "HgN/A
11:50 PM
Thu, Sep 3
50 °FClear.3 mph100%29.89 "HgN/A
11:20 PM50 °FClear.2 mph100%29.92 "HgN/A
10:50 PM52 °FClear.2 mph94%29.92 "HgN/A
10:20 PM52 °FPassing clouds.2 mph94%29.89 "HgN/A
9:50 PM54 °FPassing clouds.5 mph88%29.92 "HgN/A
9:20 PM54 °FPassing clouds.5 mph94%29.92 "HgN/A
8:50 PM57 °FScattered clouds.5 mph77%29.89 "HgN/A
8:20 PM57 °FScattered clouds.3 mph77%29.89 "HgN/A
7:50 PM59 °FScattered clouds.5 mph72%29.89 "HgN/A
7:20 PM61 °FScattered clouds.5 mph68%29.89 "HgN/A
6:50 PM63 °FScattered clouds.5 mph68%29.89 "HgN/A
6:20 PM61 °FScattered clouds.6 mph68%29.89 "HgN/A
5:50 PM63 °FScattered clouds.6 mph64%29.89 "HgN/A
5:20 PM61 °FScattered clouds.8 mph68%29.89 "HgN/A
Weather by CustomWeather, © 2015

See weather overviewHow to use our weather pages